TimeMDT,TemperatureF,Dew PointF,Humidity,Sea Level PressureIn,VisibilityMPH,Wind Direction,Wind SpeedMPH,Gust SpeedMPH,PrecipitationIn,Events,Conditions,WindDirDegrees,DateUTC
12:15 AM,28.4,8.6,43,29.98,7.0,North,33.4,39.1,N/A,,Overcast,10,2013-04-10 06:15:00
12:35 AM,28.4,6.8,40,29.99,6.0,NNE,29.9,39.1,N/A,,Overcast,20,2013-04-10 06:35:00
12:55 AM,26.6,6.8,43,29.98,9.0,NNE,31.1,36.8,N/A,,Mostly Cloudy,20,2013-04-10 06:55:00
1:15 AM,26.6,6.8,43,29.98,6.0,North,25.3,38.0,N/A,,Scattered Clouds,10,2013-04-10 07:15:00
1:35 AM,26.6,6.8,43,29.98,7.0,North,32.2,38.0,N/A,,Mostly Cloudy,10,2013-04-10 07:35:00
1:55 AM,26.6,6.8,43,29.98,8.0,NNE,35.7,39.1,N/A,,Overcast,20,2013-04-10 07:55:00
2:15 AM,26.6,6.8,43,30.01,8.0,North,28.8,39.1,N/A,,Overcast,10,2013-04-10 08:15:00
2:35 AM,26.6,5.0,40,29.99,7.0,NNE,33.4,39.1,N/A,,Overcast,20,2013-04-10 08:35:00
2:55 AM,24.8,3.2,40,30.02,9.0,NNE,29.9,36.8,N/A,,Overcast,20,2013-04-10 08:55:00
3:15 AM,24.8,5.0,43,30.02,10.0,NNE,33.4,40.3,N/A,,Overcast,20,2013-04-10 09:15:00
3:35 AM,24.8,5.0,43,30.02,10.0,NNE,24.2,29.9,N/A,,Overcast,20,2013-04-10 09:35:00
3:55 AM,24.8,3.2,40,30.00,9.0,NNE,32.2,39.1,N/A,,Mostly Cloudy,20,2013-04-10 09:55:00
4:15 AM,24.8,3.2,40,30.00,8.0,North,27.6,38.0,N/A,,Scattered Clouds,10,2013-04-10 10:15:00
4:35 AM,24.8,3.2,40,29.99,9.0,NNE,28.8,35.7,N/A,,Clear,20,2013-04-10 10:35:00
4:55 AM,24.8,3.2,40,29.99,10.0,NNE,33.4,38.0,N/A,,Clear,20,2013-04-10 10:55:00
5:15 AM,24.8,3.2,40,30.02,10.0,North,29.9,35.7,N/A,,Mostly Cloudy,10,2013-04-10 11:15:00
5:35 AM,24.8,3.2,40,30.03,10.0,NNE,28.8,34.5,N/A,,Overcast,20,2013-04-10 11:35:00
5:55 AM,24.8,1.4,36,30.04,10.0,NNE,25.3,38.0,N/A,,Overcast,20,2013-04-10 11:55:00
6:15 AM,23.0,3.2,43,30.05,10.0,NNE,27.6,38.0,N/A,,Overcast,20,2013-04-10 12:15:00
6:35 AM,23.0,3.2,43,30.03,10.0,NNE,27.6,34.5,N/A,,Overcast,20,2013-04-10 12:35:00
6:55 AM,21.2,3.2,46,30.04,10.0,NNE,21.9,35.7,N/A,,Overcast,20,2013-04-10 12:55:00
7:15 AM,21.2,3.2,46,30.07,10.0,NNE,28.8,33.4,N/A,,Mostly Cloudy,20,2013-04-10 13:15:00
7:35 AM,23.0,3.2,43,30.06,10.0,NNE,26.5,32.2,N/A,,Mostly Cloudy,20,2013-04-10 13:35:00
7:55 AM,23.0,3.2,43,30.07,10.0,NNE,29.9,35.7,N/A,,Mostly Cloudy,20,2013-04-10 13:55:00
8:15 AM,24.8,3.2,40,30.07,10.0,North,26.5,32.2,N/A,,Partly Cloudy,10,2013-04-10 14:15:00
8:55 AM,28.4,6.8,40,30.07,10.0,NNE,29.9,33.4,N/A,,Clear,20,2013-04-10 14:55:00
9:15 AM,30.2,5.0,34,30.08,9.0,North,27.6,35.7,N/A,,Clear,10,2013-04-10 15:15:00
9:35 AM,32.0,6.8,35,30.08,10.0,NNE,25.3,32.2,N/A,,Scattered Clouds,20,2013-04-10 15:35:00
9:55 AM,33.8,6.8,32,30.08,10.0,North,25.3,31.1,N/A,,Partly Cloudy,10,2013-04-10 15:55:00
10:15 AM,33.8,6.8,32,30.08,10.0,North,25.3,28.8,N/A,,Clear,10,2013-04-10 16:15:00
10:35 AM,35.6,6.8,30,30.08,10.0,NNE,24.2,29.9,N/A,,Partly Cloudy,20,2013-04-10 16:35:00
11:15 AM,37.4,6.8,28,30.07,10.0,NNE,20.7,27.6,N/A,,Clear,20,2013-04-10 17:15:00
11:35 AM,37.4,8.6,30,30.05,10.0,NNE,24.2,28.8,N/A,,Clear,20,2013-04-10 17:35:00
12:15 PM,39.2,8.6,28,30.05,10.0,NNE,18.4,24.2,N/A,,Clear,20,2013-04-10 18:15:00
12:35 PM,39.2,8.6,28,30.04,10.0,NNE,18.4,25.3,N/A,,Clear,20,2013-04-10 18:35:00
12:55 PM,39.2,10.4,31,30.04,10.0,NNE,12.7,23.0,N/A,,Clear,20,2013-04-10 18:55:00
1:15 PM,39.2,10.4,31,30.02,10.0,North,12.7,17.3,N/A,,Clear,350,2013-04-10 19:15:00
1:35 PM,41.0,12.2,31,30.01,10.0,North,11.5,18.4,N/A,,Clear,360,2013-04-10 19:35:00
1:55 PM,42.8,12.2,29,30.00,10.0,NNE,12.7,18.4,N/A,,Clear,20,2013-04-10 19:55:00
2:15 PM,42.8,12.2,29,29.99,10.0,North,13.8,21.9,N/A,,Clear,350,2013-04-10 20:15:00
2:35 PM,42.8,12.2,29,29.99,10.0,NE,6.9,20.7,N/A,,Clear,40,2013-04-10 20:35:00
2:55 PM,42.8,14.0,31,29.98,10.0,NW,8.1,-,N/A,,Clear,320,2013-04-10 20:55:00
3:15 PM,44.6,14.0,29,29.98,10.0,North,8.1,-,N/A,,Clear,350,2013-04-10 21:15:00
3:35 PM,44.6,14.0,29,29.96,10.0,NW,9.2,-,N/A,,Clear,310,2013-04-10 21:35:00
3:55 PM,46.4,15.8,29,29.96,10.0,NNE,9.2,-,N/A,,Clear,20,2013-04-10 21:55:00
4:15 PM,46.4,15.8,29,29.95,10.0,North,6.9,-,N/A,,Clear,360,2013-04-10 22:15:00
4:35 PM,46.4,15.8,29,29.95,10.0,North,6.9,16.1,N/A,,Clear,10,2013-04-10 22:35:00
4:55 PM,46.4,15.8,29,29.95,10.0,North,3.5,-,N/A,,Clear,360,2013-04-10 22:55:00
5:15 PM,46.4,15.8,29,29.95,10.0,North,4.6,-,N/A,,Clear,360,2013-04-10 23:15:00
5:35 PM,46.4,15.8,29,29.95,10.0,NNW,11.5,-,N/A,,Clear,340,2013-04-10 23:35:00
5:55 PM,46.4,14.0,27,29.95,10.0,North,6.9,-,N/A,,Clear,10,2013-04-10 23:55:00
6:15 PM,44.6,14.0,29,29.96,10.0,NE,4.6,-,N/A,,Clear,40,2013-04-11 00:15:00
6:35 PM,44.6,14.0,29,29.96,10.0,ENE,6.9,-,N/A,,Clear,60,2013-04-11 00:35:00
6:55 PM,44.6,12.2,27,29.96,10.0,ENE,4.6,-,N/A,,Clear,60,2013-04-11 00:55:00
7:15 PM,42.8,12.2,29,29.97,10.0,ENE,6.9,-,N/A,,Clear,60,2013-04-11 01:15:00
7:35 PM,41.0,12.2,31,29.98,10.0,NE,8.1,-,N/A,,Clear,40,2013-04-11 01:35:00
7:55 PM,39.2,10.4,31,29.98,10.0,NE,8.1,-,N/A,,Clear,40,2013-04-11 01:55:00
8:15 PM,39.2,10.4,31,29.98,10.0,NE,10.4,-,N/A,,Clear,50,2013-04-11 02:15:00
8:35 PM,37.4,10.4,33,29.98,10.0,NE,10.4,-,N/A,,Clear,50,2013-04-11 02:35:00
8:55 PM,35.6,10.4,35,29.99,10.0,NE,10.4,-,N/A,,Clear,50,2013-04-11 02:55:00
9:15 PM,35.6,10.4,35,29.99,10.0,ENE,9.2,-,N/A,,Clear,60,2013-04-11 03:15:00
9:35 PM,33.8,10.4,38,30.01,10.0,ENE,6.9,-,N/A,,Clear,60,2013-04-11 03:35:00
9:55 PM,32.0,10.4,41,30.00,10.0,ENE,8.1,-,N/A,,Clear,70,2013-04-11 03:55:00
10:15 PM,30.2,10.4,44,30.00,10.0,East,6.9,-,N/A,,Clear,80,2013-04-11 04:15:00
10:35 PM,30.2,12.2,47,30.00,10.0,East,6.9,-,N/A,,Scattered Clouds,80,2013-04-11 04:35:00
10:55 PM,30.2,10.4,44,30.00,10.0,ENE,6.9,-,N/A,,Partly Cloudy,60,2013-04-11 04:55:00
11:15 PM,30.2,10.4,44,29.99,10.0,ENE,5.8,-,N/A,,Clear,70,2013-04-11 05:15:00
11:35 PM,30.2,10.4,44,29.99,10.0,ENE,5.8,-,N/A,,Clear,60,2013-04-11 05:35:00
11:55 PM,30.2,12.2,47,29.99,10.0,NNE,4.6,-,N/A,,Scattered Clouds,20,2013-04-11 05:55:00